Location: Newark
(55.7083°N, 13.1992°E)
Time: 14:55:00
(UTC+00:00)

Transit 4A - Pass Details

Date: 23 February 2020
Orbit: 871 x 973 km, 66.8° (Epoch: 08 April)

Event Time Altitude Azimuth Distance (km) Brightness Sun altitude
Exits shadow 05:22:21 - 312° (NW) 3,138 10.2 -8.0°
Reaches altitude 10° 05:24:04 10° 317° (NW) 2,531 9.7 -7.8°
Maximum altitude 05:29:34 40° 27° (NNE) 1,264 8.8 -7.0°
Drops below altitude 10° 05:35:05 10° 97° (E) 2,545 12.1 -6.2°
Sets 05:37:45 0° 105° (ESE) 3,494 13.5 -5.9°
